This demonstration page uses our WeatherBlox Daily Observations layout. Learn more.

Left ArrowRight Arrow

39.01783, -85.05884

Hourly Observations for August 24, 2021

Temp ( °F °C ) Dew Point ( °F °C ) Humidity (%) Winds ( mph kmh ) Pressure ( in mb ) Visibility ( mi km ) Precip ( " mm )
12:52 am 00:52 Partly Cloudy 77 25 69 20.6 77 77 WNW 3 6 29.99 1016 10 16 0.00 0.00
1:52 am 01:52 Mostly Cloudy 75 23.9 70 21.1 84 84 Calm 30.00 1016 9 14 0.00 0.00
2:52 am 02:52 Mostly Cloudy 76 24.4 70 21.1 82 82 Calm 29.99 1016 10 16 0.00 0.00
3:52 am 03:52 Partly Cloudy 74 23.3 70 21.1 88 88 Calm 30.00 1016 9 14 0.00 0.00
4:52 am 04:52 Mostly Clear 73 22.8 70 21.1 90 90 W 3 6 30.00 1016 8 13 0.00 0.00
5:52 am 05:52 Mostly Clear 73 22.8 69 20.6 87 87 W 3 6 30.00 1016 7 11 0.00 0.00
6:52 am 06:52 Mostly Clear 72 22.2 70 21.1 94 94 Calm 30.01 1016 7 11 0.00 0.00
7:52 am 07:52 Mostly Sunny 74 23.3 70 21.1 88 88 Calm 30.02 1017 8 13 0.00 0.00
8:52 am 08:52 Sunny 79 26.1 71 21.7 77 77 Calm 30.03 1017 9 14 0.00 0.00
9:52 am 09:52 Mostly Sunny 83 28.3 68 20 61 61 Calm 30.04 1017 10 16 0.00 0.00
10:52 am 10:52 Sunny 87 30.6 68 20 53 53 VRB 5 7 30.04 1017 10 16 0.00 0.00
11:52 am 11:52 Sunny 88 31.1 68 20 52 52 VRB 3 6 30.04 1017 10 16 0.00 0.00
12:52 pm 12:52 Mostly Sunny 89 31.7 67 19.4 48 48 Calm 30.04 1017 10 16 0.00 0.00
1:52 pm 13:52 Mostly Sunny 90 32.2 65 18.3 44 44 VRB 3 6 30.03 1017 10 16 0.00 0.00
2:52 pm 14:52 Mostly Sunny 91 32.8 67 19.4 45 45 WSW 5 7 30.02 1017 10 16 0.00 0.00
3:52 pm 15:52 Mostly Sunny 91 32.8 67 19.4 45 45 S 6 9 30.01 1016 10 16 0.00 0.00
4:52 pm 16:52 Mostly Sunny 92 33.3 68 20 46 46 SSW 8 13 29.99 1016 10 16 0.00 0.00
5:52 pm 17:52 Mostly Sunny 91 32.8 66 18.9 44 44 S 3 6 29.98 1015 10 16 0.00 0.00
6:52 pm 18:52 Mostly Sunny 89 31.7 68 20 50 50 SW 6 9 29.98 1015 10 16 0.00 0.00
7:52 pm 19:52 Mostly Sunny 86 30 69 20.6 57 57 SSW 6 9 29.98 1015 10 16 0.00 0.00
8:52 pm 20:52 Clear 83 28.3 68 20 61 61 SSW 6 9 29.99 1016 10 16 0.00 0.00
9:52 pm 21:52 Clear 81 27.2 68 20 65 65 SSW 5 7 30.00 1016 10 16 0.00 0.00
10:52 pm 22:52 Clear 80 26.7 69 20.6 69 69 SW 5 7 30.03 1017 10 16 0.00 0.00
11:52 pm 23:52 Clear 78 25.6 69 20.6 74 74 SSW 5 7 30.03 1017 10 16 0.00 0.00

Powered by AerisWeather